sat.trackr.live / text

‹ back to catalog

FLOCK 4H-5

NORAD 66708 · 2025-276AU

PAYLOAD ACTIVE UNKNOWN

§ Identity

Operator
Country
US
Launch date
2025-11-28
Launch site
AFWTR
Launch vehicle
Mass (kg)
RCS (m²)

Purposes: earth_obs

External: N2YO · Heavens-Above · Gunter

§ Orbital elements

Epoch: 2026-05-25T03:21:17.252064Z

Period
94.72 min
Inclination
97.4182°
Eccentricity
0.0002179
Mean motion
15.20306400 rev/d
Perigee alt
503.4 km
Apogee alt
506.4 km
Semi-major
6,883.1 km
B*
2.5972e-4
RAAN
219.2119°
Arg perigee
83.7842°
Mean anomaly
276.3641°
Rev number
2,693

§ Raw data

FLOCK 4H-51 66708U 25276AU  26145.13978301  .00005576  00000+0  25972-3 0  99992 66708  97.4182 219.2119 0002179  83.7842 276.3641 15.20306400 26936

JSON: /api/v1/satellites/66708 · /tle

For live sub-satellite position, see the globe view (requires WebGL).

§ Visibility from observer

Set your observer location to see the next 7 days of passes ≥ 10°. The values pass through the URL so the page stays shareable.

No JS? Fill the form by hand. The geolocation button needs JavaScript.